GW1725 Weather Reports


time (UTC)temp
C
wind
direction
speed
KPH
gust
KPH
rain 1hr
cm
rain 24hr
cm
rain mn
cm
humidity
%
barometer
mb
20260906211957 34 345 1.6 1.6 0.00 0.00 0.00 36 1018.3
20260906210953 34 14 0.0 1.6 0.00 0.00 0.00 35 1018.6
20260906205953 34 329 1.6 3.2 0.00 0.00 0.00 38 1018.6
20260906204952 33 2 1.6 1.6 0.00 0.00 0.00 39 1018.7
20260906203950 33 36 1.6 1.6 0.00 0.00 0.00 40 1018.9
20260906202949 33 6 1.6 1.6 0.00 0.00 0.00 40 1019.0
20260906201943 32 5 3.2 3.2 0.00 0.00 0.00 43 1019.1
20260906200944 31 346 1.6 1.6 0.00 0.00 0.00 46 1019.1
20260906195940 31 25 0.0 1.6 0.00 0.00 0.00 46 1019.6
20260906194938 31 353 1.6 1.6 0.00 0.00 0.00 46 1019.4
20260906193935 30 4 1.6 1.6 0.00 0.00 0.00 47 1019.4
20260906192931 30 350 0.0 1.6 0.00 0.00 0.00 46 1019.6
20260906191931 30 342 1.6 1.6 0.00 0.00 0.00 47 1019.8
20260906190925 30 321 1.6 3.2 0.00 0.00 0.00 46 1020.1
20260906185924 30 194 3.2 3.2 0.00 0.00 0.00 47 1020.1
20260906184922 30 10 1.6 1.6 0.00 0.00 0.00 46 1020.6
20260906183919 28 70 1.6 3.2 0.00 0.00 0.00 52 1020.8
20260906182916 29 356 0.0 1.6 0.00 0.00 0.00 51 1020.8
20260906181913 27 31 0.0 1.6 0.00 0.00 0.00 54 1021.0
20260906180910 27 134 4.8 4.8 0.00 0.00 0.00 53 1021.1
20260906175909 26 346 3.2 3.2 0.00 0.00 0.00 57 1021.3
20260906174908 28 171 1.6 3.2 0.00 0.00 0.00 54 1021.8
20260906173909 26 119 3.2 3.2 0.00 0.00 0.00 57 1021.7
20260906172903 27 75 1.6 1.6 0.00 0.00 0.00 55 1022.2
20260906171900 26 86 1.6 1.6 0.00 0.00 0.00 57 1022.3
20260906170857 26 60 1.6 1.6 0.00 0.00 0.00 61 1022.6
20260906165855 25 29 1.6 1.6 0.00 0.00 0.00 61 1022.3
20260906164855 25 289 0.0 1.6 0.00 0.00 0.00 61 1022.6
20260906163850 25 345 1.6 1.6 0.00 0.00 0.00 62 1022.6
20260906162850 25 139 4.8 4.8 0.00 0.00 0.00 61 1022.4
20260906161850 25 345 0.0 0.0 0.00 0.00 0.00 63 1022.3
20260906160848 23 346 3.2 3.2 0.00 0.00 0.00 67 1022.4
20260906155846 23 344 1.6 1.6 0.00 0.00 0.00 66 1022.4
20260906154843 22 346 1.6 1.6 0.00 0.00 0.00 68 1022.6
20260906153842 22 346 1.6 1.6 0.00 0.00 0.00 69 1022.7
20260906152836 22 346 1.6 3.2 0.00 0.00 0.00 69 1022.7
20260906151836 22 28 1.6 1.6 0.00 0.00 0.00 66 1022.7
20260906150833 21 350 0.0 0.0 0.00 0.00 0.00 71 1023.0
20260906145833 21 350 1.6 1.6 0.00 0.00 0.00 69 1022.8
20260906144833 20 346 1.6 1.6 0.00 0.00 0.00 72 1023.0
20260906143828 19 47 0.0 1.6 0.00 0.00 0.00 73 1022.7
20260906142826 18 9 0.0 0.0 0.00 0.00 0.00 80 1022.6
20260906141826 18 345 0.0 0.0 0.00 0.00 0.00 80 1022.8
20260906140825 17 315 1.6 3.2 0.00 0.00 0.00 80 1022.8
20260906135824 16 335 0.0 0.0 0.00 0.00 0.00 81 1022.6
20260906134820 16 3 0.0 0.0 0.00 0.00 0.00 82 1022.7
20260906133817 15 343 0.0 0.0 0.00 0.00 0.00 85 1022.8
20260906132813 15 345 0.0 0.0 0.00 0.00 0.00 85 1022.7
20260906131810 15 345 0.0 0.0 0.00 0.00 0.00 84 1022.6
20260906130807 15 338 0.0 0.0 0.00 0.00 0.00 85 1022.6
20260906125805 14 341 0.0 0.0 0.00 0.00 0.00 85 1022.6
20260906124804 15 342 0.0 0.0 0.00 0.00 0.00 85 1022.5
20260906123758 15 348 0.0 0.0 0.00 0.00 0.00 85 1022.7
20260906122753 15 348 0.0 0.0 0.00 0.00 0.00 86 1022.5
20260906121751 15 347 0.0 0.0 0.00 0.00 0.00 86 1022.7
20260906120748 15 350 0.0 0.0 0.00 0.00 0.00 86 1022.5
20260906115746 15 345 0.0 0.0 0.00 0.00 0.00 87 1022.6
20260906114746 15 347 0.0 0.0 0.00 0.00 0.00 86 1022.5
20260906113743 15 346 0.0 0.0 0.00 0.00 0.00 86 1022.5
20260906112742 15 338 0.0 0.0 0.00 0.00 0.00 86 1022.4
20260906111738 15 349 0.0 0.0 0.00 0.00 0.00 86 1022.4
20260906110734 16 343 0.0 0.0 0.00 0.00 0.00 85 1022.4
20260906105733 16 337 0.0 0.0 0.00 0.00 0.00 84 1022.4
20260906104730 16 340 0.0 0.0 0.00 0.00 0.00 81 1022.2
20260906103727 16 348 0.0 0.0 0.00 0.00 0.00 80 1022.2
20260906102723 16 348 0.0 0.0 0.00 0.00 0.00 78 1022.0
20260906101723 16 349 0.0 0.0 0.00 0.00 0.00 78 1022.3
20260906100720 16 344 0.0 0.0 0.00 0.00 0.00 78 1022.4
20260906095720 16 349 0.0 0.0 0.00 0.00 0.00 78 1022.0
20260906094720 16 344 0.0 0.0 0.00 0.00 0.00 77 1021.9
20260906093718 17 343 0.0 0.0 0.00 0.00 0.00 76 1022.0
20260906092714 17 337 0.0 0.0 0.00 0.00 0.00 75 1021.6
20260906091710 17 350 0.0 0.0 0.00 0.00 0.00 73 1021.7
20260906090708 17 349 0.0 0.0 0.00 0.00 0.00 73 1021.6
20260906085707 17 346 0.0 0.0 0.00 0.00 0.00 72 1021.6
20260906084706 18 347 0.0 0.0 0.00 0.00 0.00 71 1021.5
20260906083701 18 348 0.0 0.0 0.00 0.00 0.00 71 1021.5
20260906082657 18 350 0.0 0.0 0.00 0.00 0.00 70 1021.6
20260906081655 18 350 0.0 0.0 0.00 0.00 0.00 71 1021.8
20260906080652 18 346 0.0 0.0 0.00 0.00 0.00 69 1021.8
20260906075648 18 343 0.0 0.0 0.00 0.00 0.00 68 1021.7
20260906074643 18 352 0.0 0.0 0.00 0.00 0.00 68 1021.3
20260906073643 18 349 0.0 1.6 0.00 0.00 0.00 67 1021.5
20260906072640 18 353 0.0 1.6 0.00 0.00 0.00 65 1021.7
20260906071638 18 352 1.6 1.6 0.00 0.00 0.00 65 1021.7
20260906070634 18 350 0.0 0.0 0.00 0.00 0.00 65 1021.9
20260906065629 18 348 0.0 0.0 0.00 0.00 0.00 67 1021.9
20260906064626 18 346 0.0 0.0 0.00 0.00 0.00 66 1021.6
20260906063621 19 346 0.0 0.0 0.00 0.00 0.00 64 1022.3
20260906062619 19 336 0.0 0.0 0.00 0.00 0.00 64 1021.8
20260906061614 19 339 0.0 0.0 0.00 0.00 0.00 64 1021.7
20260906060610 19 353 0.0 0.0 0.00 0.00 0.00 63 1021.8
20260906055608 19 347 0.0 0.0 0.00 0.00 0.00 63 1021.5
20260906054604 20 343 0.0 0.0 0.00 0.00 0.00 60 1021.8
20260906053601 20 345 0.0 0.0 0.00 0.00 0.00 60 1021.8
20260906052558 20 342 0.0 0.0 0.00 0.00 0.00 57 1021.8
20260906051556 20 335 0.0 1.6 0.00 0.00 0.00 57 1021.6
20260906050552 20 349 1.6 1.6 0.00 0.00 0.00 57 1021.6
20260906045551 20 335 0.0 1.6 0.00 0.00 0.00 56 1021.0
20260906044548 20 334 0.0 0.0 0.00 0.00 0.00 57 1020.6
20260906043545 20 342 0.0 0.0 0.00 0.00 0.00 57 1020.8
20260906042545 21 357 0.0 0.0 0.00 0.00 0.00 55 1020.5
20260906041542 21 350 0.0 0.0 0.00 0.00 0.00 54 1020.2
20260906040537 22 345 0.0 0.0 0.00 0.00 0.00 52 1020.3
20260906035534 22 332 0.0 0.0 0.00 0.00 0.00 52 1020.3
20260906034530 22 340 0.0 0.0 0.00 0.00 0.00 51 1020.4
20260906033526 22 346 0.0 0.0 0.00 0.00 0.00 50 1020.4
20260906032524 23 347 0.0 0.0 0.00 0.00 0.00 49 1020.3
20260906031520 23 351 0.0 1.6 0.00 0.00 0.00 48 1020.4
20260906030514 23 353 0.0 0.0 0.00 0.00 0.00 47 1020.2
20260906025513 23 351 0.0 0.0 0.00 0.00 0.00 47 1020.4
20260906024513 24 348 0.0 1.6 0.00 0.00 0.00 45 1019.8
20260906023509 24 15 0.0 0.0 0.00 0.00 0.00 45 1019.8
20260906022505 25 351 0.0 0.0 0.00 0.00 0.00 46 1019.8
20260906021501 25 347 0.0 0.0 0.00 0.00 0.00 42 1019.6
20260906020456 25 12 0.0 1.6 0.00 0.00 0.00 42 1019.4
20260906015455 25 343 0.0 0.0 0.00 0.00 0.00 41 1019.3
20260906014455 25 358 0.0 0.0 0.00 0.00 0.00 41 1019.0
20260906013452 26 350 0.0 1.6 0.00 0.00 0.00 40 1019.3
20260906012448 26 350 1.6 1.6 0.00 0.00 0.00 40 1019.4
20260906011443 27 341 0.0 0.0 0.00 0.00 0.00 38 1019.4
20260906010439 27 341 0.0 0.0 0.00 0.00 0.00 38 1019.3
20260906005435 27 347 3.2 4.8 0.00 0.00 0.00 37 1019.5
20260906004434 27 315 1.6 3.2 0.00 0.00 0.00 37 1019.4
20260906003430 28 342 1.6 1.6 0.00 0.00 0.00 36 1019.5
20260906002425 28 324 3.2 3.2 0.00 0.00 0.00 36 1019.5
20260906001421 30 313 1.6 1.6 0.00 0.00 0.00 35 1019.4
20260906000418 30 344 1.6 1.6 0.00 0.00 0.00 32 1019.5
20260905235412 30 338 0.0 0.0 0.00 0.00 0.00 31 1019.5
20260905234408 31 345 0.0 0.0 0.00 0.00 0.00 37 1019.1
20260905233404 31 352 0.0 0.0 0.00 0.00 0.00 35 1018.9
20260905232359 32 348 0.0 0.0 0.00 0.00 0.00 31 1019.1
20260905231355 32 348 0.0 0.0 0.00 0.00 0.00 34 1018.8
20260905230355 33 350 0.0 0.0 0.00 0.00 0.00 35 1018.6
20260905225350 33 347 0.0 0.0 0.00 0.00 0.00 33 1018.3
20260905224347 34 331 0.0 0.0 0.00 0.00 0.00 25 1018.2
20260905223345 34 292 0.0 1.6 0.00 0.00 0.00 26 1018.3
20260905222344 32 2 1.6 1.6 0.00 0.00 0.00 31 1018.1
20260905221343 36 351 1.6 1.6 0.00 0.00 0.00 29 1018.1
20260905220340 36 23 1.6 1.6 0.00 0.00 0.00 26 1018.2
20260905215335 36 35 3.2 4.8 0.00 0.00 0.00 24 1018.7
20260905214332 37 357 1.6 1.6 0.00 0.00 0.00 24 1018.3
20260905213329 37 37 0.0 1.6 0.00 0.00 0.00 24 1018.7